CAPE
691 671 912 1536 1953 1974 1775 1587 1393 1263 1119 924 1028 1071 1446 1414 1399 1702 1707 1749 1858 1985 2084 1993 1928 1918 1942 1908 1947 1825 1860 1827 1804 1653 1523 1500 1493 1401 1304 1282 1151 1093 1000 870 791 654 388 362 348 416 324 142 123 326 317 279 514 637 515 517 687 746 656 623 573 479 554 1002 1120 1122 899 495 391 260 80 75 68 97 115 109 109 143 200 141 41
671 756 1033 1323 1972 2044 1704 1541 1358 1208 1142 933 1036 1246 1338 1374 1594 1733 1856 1977 2104 2120 2074 2042 2020 1997 1916 1938 1886 1930 1900 1830 1877 1744 1594 1503 1436 1432 1357 1293 1098 965 890 806 740 789 345 57 106 130 118 210 122 206 272 376 465 558 606 603 624 754 977 838 544 592 627 521 733 782 701 583 408 347 110 72 82 117 139 105 40 129 127 28 41
587 952 1112 1395 2063 1869 1722 1501 1286 1134 1005 858 1106 1241 1291 1539 1755 1922 1891 2094 2130 2110 2025 2091 2003 1941 1886 1891 1862 1880 1882 1865 1816 1767 1568 1468 1452 1336 1323 1125 928 773 688 739 721 712 615 181 168 232 142 93 179 239 206 379 366 476 479 555 588 577 662 767 869 825 716 1084 999 753 563 558 592 602 406 302 266 84 14 45 84 78 65 35 53
619 922 1090 1514 1940 1927 1731 1544 1281 1100 994 1001 1193 1330 1569 1839 1888 2000 1997 2099 2088 2043 1965 1989 2004 1927 2011 1938 1998 1932 1922 1872 1863 1730 1488 1479 1457 1464 1363 999 722 655 652 645 630 581 474 40 261 288 132 35 82 144 178 387 519 560 550 489 449 441 420 385 471 692 686 642 592 386 371 474 416 184 236 179 44 44 53 52 58 72 11 14 22
664 932 1161 1212 1768 1868 1649 1413 1161 939 1015 1041 1112 1358 1618 1825 2019 1987 2000 1997 2033 2039 2020 2021 1986 1946 1930 1931 1896 1918 1939 1866 1827 1735 1792 1678 1557 1547 1351 1234 723 700 766 844 919 793 672 82 73 172 51 19 136 247 374 457 532 590 562 453 464 493 411 436 321 335 468 458 397 213 293 298 417 176 195 178 138 87 96 51 44 64 47 32 35
606 916 1106 1258 1327 1604 1591 1215 1042 932 1004 1090 1173 1474 1741 1908 1947 1938 1942 1896 1991 2000 2030 2000 1991 1972 1964 2016 1948 1975 1912 1903 1797 1807 1772 1704 1539 1366 1256 764 636 718 992 975 773 210 366 336 468 286 187 198 193 178 292 299 454 557 553 599 547 459 538 815 762 299 284 205 138 167 164 235 329 310 214 241 165 119 96 85 86 77 64 55 54
838 965 1066 1222 1511 1668 1580 1177 996 1011 973 1130 1444 1697 1848 1718 1920 1922 1951 2052 2021 2071 2019 2072 2077 2026 1989 1941 2000 1976 1950 1906 1830 1761 1758 1618 1548 1519 1423 1363 1246 1068 962 871 863 554 510 665 596 405 299 372 326 318 326 299 342 318 358 454 618 618 617 563 573 608 340 232 305 330 356 364 427 416 404 408 193 66 73 82 52 41 60 60 15
977 972 1057 1126 1483 1659 1418 1121 1010 999 969 1226 1599 1820 1800 1827 1828 1826 1985 2064 2032 2012 2084 2091 2048 1997 1980 1978 1996 1949 1936 1892 1795 1661 1641 1749 1620 1488 1360 1188 950 701 612 710 737 640 458 284 313 580 478 526 491 451 463 451 521 584 548 530 576 577 603 603 706 700 549 468 344 291 343 395 499 248 316 390 440 277 202 157 82 25 49 13 36
824 961 1028 1130 1369 1460 1273 1204 1073 1042 1049 1332 1798 1819 1789 1850 1936 1989 2012 2017 2004 2129 2155 2076 2000 1975 1977 1887 1943 1976 1912 1813 1674 1674 1634 1407 1166 969 849 813 829 683 661 666 522 640 811 745 754 702 636 593 613 632 555 475 642 699 841 833 711 1076 1033 1144 1136 883 916 854 790 409 331 359 583 565 414 266 260 234 112 160 120 60 22 51 70
784 908 963 1240 1477 1485 1317 1211 1180 1068 1049 1798 1878 1872 1863 1910 1984 1997 2131 2054 2077 2107 2070 2096 2008 1991 1914 1821 1852 1804 1909 1845 1824 1570 1418 1333 1426 1390 1367 1065 909 890 981 1042 968 752 850 930 858 706 782 808 762 853 1040 1139 1082 1098 956 893 1114 1151 1144 1249 1152 1179 1273 1029 901 395 324 717 484 494 454 249 326 263 250 79 97 67 112 40 52
726 749 916 1233 1285 1457 1321 1360 1318 1103 1076 1814 1926 1920 1988 2022 2076 2164 2073 2026 2071 2092 2072 2030 1947 1921 1896 1835 1858 1798 1796 1729 1690 1718 1612 1598 1441 1207 1079 940 824 773 754 838 907 800 955 965 915 961 964 941 966 953 1117 1141 1180 1079 998 1077 1278 1274 1329 1196 1031 853 867 896 716 393 284 596 714 714 580 366 208 207 154 62 116 148 118 89 88
431 805 972 1138 1428 1368 1405 1362 1243 1318 1282 1937 1938 1905 2069 2036 2047 2195 2093 2066 2080 2104 2072 1959 1924 1886 1850 1761 1816 1741 1636 1646 1424 1364 1313 1345 1188 989 830 743 708 678 687 789 864 899 882 1016 1071 1029 1141 1067 1110 1142 1036 1146 1206 1116 1099 1271 1312 1344 1409 1165 604 709 912 802 492 328 202 670 655 398 524 461 288 194 179 202 209 158 122 125 112
586 723 905 1282 1374 1390 1438 1413 1304 1326 1388 1905 1974 1973 2050 2064 2096 2108 2104 2205 2142 2029 2003 1914 1846 1849 1807 1769 1632 1539 1481 1389 1278 1237 1152 992 941 907 869 720 554 647 781 900 907 961 1025 950 1046 1029 1194 1269 1301 1305 1145 1168 1192 1296 1216 1203 1409 1584 1570 886 585 655 687 826 548 463 279 500 560 438 552 504 599 341 283 354 278 190 173 130 76
936 779 1071 1235 1170 1323 1448 1446 1464 1506 1580 1987 1978 2107 2080 2217 2166 2108 2176 2198 2080 1895 1913 1809 1763 1680 1631 1537 1481 1391 1280 1217 1118 924 842 767 710 714 663 584 579 585 656 760 846 815 961 1063 1048 1087 1101 1198 1316 1322 1345 1186 1249 1252 1107 1239 1497 1563 1642 760 476 701 815 799 696 480 365 552 521 437 547 670 672 538 340 387 340 258 233 203 140
1121 979 1064 1136 1122 1171 1524 1572 1520 1736 1962 2065 2151 2202 2292 2298 2242 2158 2119 2020 1873 1856 1822 1760 1712 1606 1549 1469 1357 1252 1066 995 934 699 506 360 549 514 352 407 469 453 570 624 717 736 894 1140 1163 1049 1156 1234 1401 1510 1493 1468 1434 1594 1235 1230 1303 1574 1610 808 592 584 725 730 642 470 481 544 552 318 568 936 842 716 543 456 421 270 263 265 198
1176 1164 1102 845 1013 1177 1302 1456 1627 1954 2107 2167 2239 2261 2224 2138 2112 2056 2051 1881 1826 1888 1739 1659 1609 1476 1370 1255 1194 1062 990 778 703 672 516 467 332 254 246 346 415 470 475 446 534 668 810 990 1147 1208 1051 1239 1408 1531 1553 1565 1628 1663 1389 1421 1400 1558 1750 712 951 613 722 792 710 695 678 503 470 506 637 1034 970 912 740 586 536 353 295 316 228
1277 1253 1147 920 1019 1134 1098 1212 1319 2047 2099 2167 2249 2195 2107 2141 2121 2030 1943 1812 1820 1802 1686 1607 1474 1343 1271 1244 1157 1018 979 808 594 679 627 659 353 315 334 407 428 421 393 443 364 426 523 689 988 877 975 1101 1193 1289 1400 1532 1486 1599 1304 1375 1617 1653 1645 913 772 967 750 602 533 650 852 582 547 548 731 1172 1174 1066 938 800 704 620 406 338 212
1178 1019 1054 991 1029 960 1060 1102 1126 1461 1770 2086 2150 2029 1968 2083 2073 1991 1929 1796 1767 1680 1514 1501 1487 1404 1352 1281 1185 1039 866 730 801 576 535 555 576 434 465 529 585 550 685 555 482 391 512 555 703 713 890 1032 1120 1270 1260 1093 1157 1350 1232 1396 1620 1792 1218 708 625 967 944 630 740 787 845 522 363 526 819 1195 1392 1297 1170 990 891 833 672 437 315
1207 863 813 871 892 887 1021 1223 1416 1600 1879 2004 2039 2210 1993 2099 1939 1906 1765 1758 1654 1670 1589 1452 1426 1281 1081 946 1072 986 956 1014 858 700 696 537 525 571 572 584 617 620 782 904 994 1002 766 555 435 525 578 675 774 876 751 549 650 723 1130 1631 1954 1517 593 745 706 662 1016 1171 943 831 907 483 313 486 801 1224 1465 1499 1390 1263 1062 1011 888 717 469
1039 668 886 1010 714 732 1008 1334 1432 1511 1658 1881 2020 2050 2047 1977 1904 1798 1735 1642 1570 1561 1440 1216 1425 1131 1123 1010 1229 1031 1006 941 913 720 600 614 653 707 628 622 644 672 754 837 1043 1162 1222 1190 1223 1066 828 576 614 542 480 674 655 772 958 1367 1321 985 1442 1104 858 832 1009 1062 957 1068 680 407 382 604 938 1136 1454 1583 1648 1490 1288 1151 1092 1040 717
786 731 853 908 728 676 962 1258 1349 1371 1529 1598 1927 1978 1843 2014 1848 1707 1669 1534 1558 1323 1429 1190 1098 1340 1263 1290 1012 658 697 680 654 741 848 671 924 729 744 740 844 910 1063 1166 1156 1242 1276 1207 1181 1260 1433 1324 1010 312 179 120 103 261 510 452 291 991 800 946 809 890 839 973 1115 909 681 646 656 802 945 1028 1275 1611 1753 1757 1526 1311 1129 868 602
562 572 885 606 766 840 987 1030 1169 1288 1480 1540 1721 1882 1988 1910 1780 1756 1554 1511 1266 1182 1098 1068 1194 1221 1508 985 1002 913 880 868 892 1117 875 672 853 831 974 994 1123 1102 1175 991 1033 1146 1142 1101 1138 1271 1155 1070 271 657 571 153 20 137 210 118 795 834 991 948 983 691 822 984 1127 1104 748 941 1041 1120 1217 1177 1172 1464 1723 1873 1340 1086 734 669 512
467 704 740 1060 784 845 1067 943 1094 1291 1358 1567 1689 1867 1810 1747 1695 1555 1479 1253 1163 1084 1032 980 971 989 927 971 938 977 1027 911 1182 1446 1593 1299 936 1107 1174 1207 1122 1108 814 743 1002 1104 976 918 947 901 624 150 1123 893 708 736 936 496 693 1134 1032 934 1052 1124 1298 1179 929 969 1285 958 1014 1292 1376 1348 1535 1598 1581 1504 1608 1502 994 764 914 680 638
353 659 411 888 990 958 992 927 1197 1344 1520 1495 1750 1640 1613 1755 1486 1394 1271 1200 1077 857 862 957 834 906 898 1038 1030 1090 1078 1191 1164 1512 1440 1277 1056 754 720 755 624 738 426 1164 1015 890 789 694 641 608 731 871 974 864 760 1016 1088 1218 1318 1181 1167 1162 1214 1226 1030 997 1172 1045 853 638 1005 1156 1315 1613 1586 1709 1914 1984 1560 1124 1113 1019 1017 789 788
447 796 533 726 794 962 949 1019 1220 1374 1335 1324 1523 1483 1511 1487 1139 1117 935 935 710 683 730 723 811 929 950 1018 860 1008 1060 1184 1361 1398 1310 1258 1086 1073 779 862 946 1200 754 1384 1480 1255 1441 1338 1427 1537 1410 1218 1206 1228 1279 1201 1304 1290 1361 1378 1430 1588 1354 1393 1450 1298 1191 1341 951 1074 1388 1546 1670 1655 1778 1835 1391 1102 1005 972 1076 1130 959 750 744
619 488 1063 747 897 1060 1112 1023 1168 1270 1379 1460 1420 1370 1442 1253 1212 1072 824 909 750 662 703 827 932 1040 1147 1184 1250 1232 1246 1314 1339 1315 1282 1282 1044 800 799 752 996 1200 1129 1297 1426 1592 1548 1486 1613 1456 1536 1402 1425 1474 1399 1390 1245 1383 1295 1372 1297 1358 1283 1311 1409 1521 1402 1276 1250 1273 1304 1448 1571 1511 1452 1308 1061 1012 1049 989 985 893 641 578 600
402 349 891 794 1044 1120 1137 1118 1137 1184 1331 1326 1217 1202 1146 1220 1164 893 758 816 765 596 704 878 1207 1375 1318 1366 1163 1134 1162 1340 1139 1079 1022 876 955 984 770 720 902 884 1240 1398 1601 1618 1509 1565 1558 1539 1533 1315 1269 1341 1318 1461 1528 1238 1200 1012 1077 1092 1203 1098 1160 1267 1386 1366 1226 984 1042 1116 1178 1185 1214 1300 1277 1252 1195 1142 1024 1131 1110 1031 911
506 409 640 771 968 1039 1044 1180 1223 1137 1233 1252 1184 1074 1069 1129 1089 843 756 722 759 669 745 845 1103 1447 1285 1341 1255 1182 1343 1289 1150 924 678 888 862 690 593 689 688 944 997 1068 1512 1435 1430 1435 1518 1366 1230 1227 1092 1170 1147 1120 1111 1127 950 812 827 1100 1094 1042 1100 1158 1236 1216 957 537 510 567 649 965 1025 1174 1274 1310 1384 1203 1160 1074 1134 1080 1072
694 577 544 669 789 989 1100 1085 1276 1084 1114 1101 1003 1043 979 912 945 851 776 856 752 722 748 868 1250 1424 1326 1370 1231 1278 1225 1082 1142 950 784 705 718 646 654 707 693 876 1035 931 1164 1478 1456 1418 1532 1212 1183 1134 1126 1068 893 683 676 663 557 560 898 925 1022 1016 1003 947 897 883 354 375 416 459 508 559 602 1018 1161 1270 1043 965 1150 1142 1000 928 1071
834 624 462 506 710 897 999 981 1112 1047 1036 913 1003 946 975 833 882 951 900 1069 875 847 1028 1177 1250 1319 1221 1236 1264 1137 1274 1295 1382 1204 996 696 624 680 806 673 660 769 1059 1213 1131 1528 1483 1294 1124 914 743 796 799 716 758 503 430 391 526 624 777 711 647 528 352 313 221 273 264 262 335 379 432 497 510 474 553 832 884 788 986 1040 1218 1229 1146
891 658 457 534 693 775 842 968 1018 983 944 895 928 1078 1016 836 831 968 937 1065 909 954 1165 1170 1097 1188 1166 1103 1157 1337 1258 1356 1484 1166 780 660 712 767 634 744 886 695 749 949 1149 1368 1370 1136 958 760 508 438 357 325 418 392 334 226 370 381 389 218 69 4 0 0 0 52 67 202 232 290 315 357 378 343 278 322 462 555 574 622 917 1074 932
913 623 438 486 638 730 799 842 1005 892 938 911 924 809 778 817 994 1078 1163 1072 1122 1102 1062 1124 1075 1094 1096 1165 1319 1284 1306 1273 1240 903 1100 768 854 770 752 950 712 574 578 720 1023 1064 744 563 500 412 464 409 283 207 288 324 180 174 174 130 27 0 0 0 0 0 0 0 0 0 109 209 233 249 277 269 214 0 0 0 135 226 306 337 617
809 628 532 430 558 712 696 703 910 951 934 938 888 870 948 905 1015 976 1079 1090 1165 1046 1029 1012 1016 1077 1178 1270 1302 1372 1496 1370 968 1129 968 884 864 912 789 712 569 510 636 655 626 624 530 334 288 330 234 275 166 214 174 187 163 110 33 1 0 0 0 0 0 0 0 0 0 0 0 180 203 204 217 236 215 0 0 0 0 0 2 5 65
693 640 534 441 573 716 775 781 950 1064 1083 1050 1142 1116 1259 1258 1017 1008 977 972 976 927 923 982 1012 1114 1167 1233 1425 1410 1372 1161 1078 838 895 916 873 825 686 472 495 485 563 659 467 581 345 228 206 180 116 100 107 106 174 148 66 16 0 0 0 0 0 0 0 0 0 0 0 0 0 0 171 208 211 127 127 0 0 0 0 0 0 0 1
582 634 561 586 642 670 735 779 980 1192 1222 1162 1267 1143 981 1032 866 877 857 855 810 814 894 918 937 1072 1073 1203 1314 1213 1204 958 956 1060 996 956 790 534 455 404 405 376 348 328 316 283 261 233 214 180 56 41 14 3 76 103 26 0 0 0 0 0 0 0 0 0 0 0 0 0 0 0 0 0 0 0 0 0 0 0 0 0 0 0 0
562 625 657 496 569 722 814 879 986 1091 1231 1288 1210 878 892 740 758 756 772 763 780 831 838 808 874 994 1065 1076 1121 1038 915 873 948 931 801 764 594 537 485 494 441 444 374 314 270 269 233 207 0 3 16 0 0 0 31 50 0 0 0 0 0 0 0 0 0 0 0 0 0 0 0 0 0 0 0 0 0 0 0 0 0 0 0 0 0
649 592 660 622 560 647 783 856 730 933 900 857 745 788 760 671 692 688 681 703 801 824 792 830 832 865 932 918 948 960 880 796 754 671 621 616 551 529 488 431 426 384 326 313 290 250 223 134 0 0 0 0 0 0 14 13 0 0 0 0 0 0 0 0 0 0 0 0 0 0 0 0 0 0 0 0 0 0 0 0 0 0 0 0 0
768 700 623 635 698 651 814 903 605 620 581 610 486 497 540 594 591 602 646 743 772 777 809 786 763 850 782 718 837 921 831 771 791 699 636 563 546 529 426 388 371 361 347 312 290 249 184 0 0 0 0 0 0 0 6 4 0 0 0 0 0 0 0 0 0 0 0 0 0 0 0 0 0 0 0 0 0 0 0 0 0 0 0 0 0
886 809 699 759 809 708 643 471 571 608 521 517 438 385 516 564 546 553 706 732 713 755 725 732 828 808 703 764 783 814 706 712 667 682 616 566 570 522 476 442 407 395 370 339 312 241 0 0 0 0 0 0 0 0 0 0 0 0 0 0 0 0 0 0 0 0 0 0 0 0 0 0 0 0 0 0 0 0 0 0 0 0 0 0 0
954 892 830 899 956 811 644 584 602 630 406 524 470 478 524 589 548 588 686 713 664 606 660 712 792 724 672 723 742 740 733 648 631 614 556 500 491 473 420 380 353 310 295 328 297 0 0 0 0 0 0 0 0 0 0 0 0 0 0 0 0 0 0 0 0 0 0 0 0 0 0 0 0 0 0 0 0 0 0 0 0 0 0 0 0
1005 974 972 1020 1075 943 618 479 504 457 384 238 499 475 530 567 585 599 626 645 582 554 573 516 587 640 603 610 606 545 590 618 607 485 474 426 385 348 346 327 292 272 272 232 142 0 0 0 0 0 0 0 0 0 0 0 0 0 0 0 0 0 0 0 0 0 0 0 0 0 0 0 0 0 0 0 0 0 0 0 0 0 0 0 0
1021 1072 1141 1090 1135 1012 774 300 407 438 421 353 396 465 527 559 574 548 512 509 495 512 484 522 542 496 546 570 573 516 537 563 526 498 433 411 410 366 325 237 2 34 0 0 0 0 0 0 0 0 0 0 0 0 0 0 16 5 0 2 2 0 0 0 0 0 0 0 0 0 0 0 0 0 0 0 0 0 0 0 0 0 0 0 0
1050 1124 1022 957 1085 1037 697 12 325 356 398 383 384 467 540 524 486 469 505 480 511 508 477 589 455 482 507 508 502 507 538 502 463 419 462 488 399 282 160 0 0 0 0 0 0 0 0 0 0 0 0 0 0 0 0 0 0 27 48 22 1 2 0 0 0 0 0 0 0 0 0 0 0 0 0 0 0 0 0 0 0 0 0 0 0
1065 1157 1152 917 1019 982 607 310 119 396 384 485 473 476 515 516 494 503 539 613 567 551 538 598 379 409 411 420 487 515 495 409 417 456 488 400 258 153 0 0 0 0 0 0 0 0 0 0 0 0 0 0 0 0 0 0 0 0 0 0 0 0 0 0 0 0 0 0 0 0 0 0 0 0 0 0 0 0 0 0 0 0 0 0 0
1168 1074 1132 1201 957 921 824 779 162 322 594 512 547 540 531 545 531 463 460 558 650 602 522 496 452 386 417 368 394 412 380 415 494 464 345 172 20 0 0 0 0 0 0 0 0 0 0 0 0 0 0 0 0 0 0 0 0 0 0 0 0 0 0 0 0 0 0 0 0 0 0 0 0 0 0 0 0 0 0 0 0 0 0 0 0
1110 984 1140 1165 1108 852 730 657 485 491 424 576 578 559 589 617 620 564 623 664 654 489 484 386 412 301 327 267 357 363 401 490 434 247 116 0 0 0 0 0 0 0 0 0 0 0 0 0 0 0 0 0 0 0 0 0 0 0 0 0 0 0 0 0 0 0 0 0 0 0 0 0 0 0 0 0 0 0 0 0 0 0 0 0 0
734 908 1050 950 940 807 842 753 572 464 419 567 574 582 651 627 535 519 579 546 560 505 443 307 288 243 240 288 345 379 484 415 203 47 0 0 0 0 0 0 0 0 0 0 0 0 0 0 0 0 0 0 0 0 0 0 0 0 0 0 0 0 0 0 0 0 0 0 0 0 0 0 0 0 0 0 0 0 0 0 0 0 0 0 0
1180 1050 1082 1025 820 896 720 600 512 440 493 544 565 538 593 573 389 394 591 676 557 491 441 301 223 225 245 321 389 504 395 255 121 0 0 0 0 0 0 0 0 0 0 0 0 0 0 0 0 0 0 0 0 0 0 0 0 0 0 0 0 0 0 0 0 0 0 0 0 0 0 0 0 0 0 0 0 0 0 0 0 0 0 0 0
1067 975 1105 920 710 680 619 570 526 554 525 548 605 647 504 536 502 537 537 745 661 606 496 183 26 151 198 319 420 419 286 202 0 0 0 0 0 0 0 0 0 0 0 0 0 0 0 0 0 0 0 0 0 0 0 0 0 0 0 0 0 0 0 0 0 0 0 0 0 0 0 0 0 0 0 0 0 0 0 0 0 0 0 0 0
1031 1113 1026 788 681 765 734 472 571 552 521 493 506 594 566 576 609 540 468 560 622 611 519 267 3 215 313 376 344 276 244 0 0 0 0 0 0 0 0 0 0 0 0 0 0 0 0 0 0 0 0 0 0 0 0 0 0 0 0 0 0 0 0 0 0 0 0 0 0 0 0 0 0 0 0 0 0 0 0 0 0 0 0 0 0
1079 933 878 847 749 731 613 534 518 540 506 449 463 586 491 476 533 472 484 627 607 584 394 320 3 318 395 382 293 317 42 0 0 0 0 0 0 0 0 0 0 0 0 0 0 0 0 0 0 0 0 0 0 0 0 0 0 0 0 0 0 0 0 0 0 0 0 0 0 0 0 0 0 0 0 0 0 0 0 0 0 0 0 0 0
Wind_Speed
29 30 27 31 31 35 37 37 38 37 38 38 39 40 40 40 39 37 34 30 29 27 26 25 24 23 23 23 22 22 22 22 23 23 23 22 22 20 19 18 17 17 17 18 17 17 15 14 13 12 12 12 14 14 14 14 13 12 11 11 13 13 12 12 12 12 12 13 12 11 11 11 10 11 nan nan nan nan 13 12 10 11 10 14 nan
31 29 27 31 30 33 35 36 37 37 37 39 39 39 40 40 40 38 35 31 29 28 27 25 23 22 22 22 22 22 21 21 22 22 21 21 21 20 19 19 17 17 17 17 17 16 16 nan 14 13 13 14 14 15 15 14 13 12 12 13 12 12 11 12 12 11 10 10 11 11 11 11 12 12 12 nan nan 12 12 11 nan 7 13 nan nan
27 26 27 30 31 34 34 34 35 36 37 38 39 39 40 40 40 39 37 33 29 28 27 25 23 22 22 22 22 22 21 21 21 21 21 20 20 20 19 19 18 17 17 17 17 16 16 15 15 14 13 nan 14 15 14 13 14 13 12 11 11 10 11 11 11 10 10 11 11 11 13 13 13 15 14 13 13 nan nan nan nan nan nan nan nan
27 25 26 29 32 31 32 34 34 36 37 38 40 39 39 39 40 40 38 34 30 28 27 25 22 21 20 21 21 22 22 21 21 20 20 20 19 19 20 19 18 17 17 17 17 17 16 nan 16 15 14 nan nan 15 14 13 12 11 11 11 11 11 11 10 10 10 10 11 11 9 10 12 15 14 15 15 nan nan nan nan nan nan nan nan nan
26 26 27 30 31 31 32 33 33 36 37 39 40 40 41 41 41 40 38 35 30 27 26 24 22 21 20 21 21 21 22 21 20 19 19 19 19 20 20 19 17 17 17 17 18 18 18 nan nan 15 nan nan 15 14 12 12 11 10 10 11 11 10 10 11 10 10 10 10 10 10 11 12 13 15 14 15 15 nan nan nan nan nan nan nan nan
27 26 28 30 31 33 33 34 35 36 38 40 40 41 41 41 41 40 38 35 31 27 26 24 22 20 20 20 20 21 21 21 20 19 19 19 19 20 20 19 17 16 17 17 17 19 18 18 17 16 15 14 13 12 11 11 10 10 10 9 9 8 11 11 9 9 9 10 10 10 11 11 11 14 14 16 16 14 nan nan nan nan nan nan nan
29 27 28 31 31 34 34 35 36 37 38 40 41 41 42 42 41 40 39 35 31 28 26 24 22 19 19 19 20 20 21 21 20 20 19 19 18 19 20 19 17 15 15 16 16 18 18 19 18 17 16 14 12 11 10 10 9 9 9 8 7 7 5 4 5 4 9 10 9 9 9 9 11 11 13 14 15 nan nan nan nan nan nan nan nan
28 26 28 31 32 36 36 37 37 37 38 40 41 42 43 42 41 41 39 36 31 28 26 24 21 19 19 19 19 20 21 21 20 20 20 20 19 19 18 18 16 15 14 13 14 15 18 19 18 17 16 15 12 11 9 9 8 7 7 7 6 6 4 5 5 6 7 7 7 7 8 9 9 9 13 12 14 16 15 15 nan nan nan nan nan
29 28 29 31 33 39 37 37 37 37 38 40 41 43 43 42 42 41 39 35 30 28 26 24 22 20 19 18 19 19 21 20 19 20 20 19 19 19 18 18 18 16 15 14 14 14 16 17 17 16 15 14 12 10 9 8 8 8 7 6 5 5 4 4 6 7 10 7 7 7 7 9 9 9 14 12 14 14 14 14 19 nan nan nan nan
31 30 30 30 34 39 38 37 37 36 38 41 42 43 43 42 41 40 37 33 29 28 26 23 22 20 18 18 18 19 19 19 18 18 19 20 20 19 18 17 16 15 14 14 14 13 14 15 15 15 14 12 11 10 9 8 8 8 8 6 5 4 3 5 5 8 6 8 8 8 8 5 9 10 13 13 13 14 15 nan nan nan 14 nan nan
34 31 31 32 38 38 38 37 36 36 38 41 42 42 42 41 40 38 34 31 29 28 25 23 22 20 18 18 17 18 19 17 17 16 17 18 18 18 17 16 15 14 13 13 13 13 13 13 13 13 13 11 11 10 10 9 8 8 7 7 5 4 3 3 7 8 8 9 9 10 12 12 10 10 13 13 14 15 16 nan 18 18 18 nan nan
37 34 32 32 39 38 38 37 36 34 37 39 41 41 40 39 38 35 32 28 28 27 23 22 21 20 18 18 17 18 18 16 15 15 15 16 17 18 18 17 16 15 14 13 12 12 12 12 12 13 12 12 11 11 11 10 9 8 8 6 5 3 2 4 6 7 9 10 11 11 11 12 11 12 12 13 15 15 17 17 17 17 18 18 18
39 37 33 33 38 38 36 35 34 33 35 39 39 39 38 37 35 32 29 25 26 25 23 21 21 19 18 17 17 17 17 15 13 13 13 14 15 17 17 17 16 15 13 12 13 12 12 12 12 12 12 12 11 11 11 11 10 8 7 6 4 2 3 3 6 7 9 11 11 12 12 11 12 12 12 13 15 15 17 18 18 18 18 19 nan
40 38 34 34 37 39 34 31 30 30 33 35 36 35 35 33 31 29 26 23 25 24 21 20 20 19 17 17 17 17 16 15 13 13 13 13 14 16 16 16 15 14 13 12 11 11 12 11 11 12 12 12 11 11 11 11 10 8 6 6 4 2 1 6 5 7 9 10 10 11 11 11 11 13 12 13 16 16 17 18 19 19 19 20 20
40 39 35 35 36 35 35 30 28 29 30 31 31 31 30 29 28 25 24 25 25 23 20 20 19 18 18 17 17 17 17 16 14 13 12 13 14 16 16 16 15 13 12 11 10 10 11 11 11 11 12 12 11 10 10 11 10 8 4 2 2 2 2 4 5 7 8 9 10 11 11 11 13 12 13 14 17 18 18 18 19 19 20 20 21
40 39 36 35 35 34 33 32 29 28 29 30 28 28 29 27 25 24 22 23 23 21 20 19 19 18 17 17 17 18 18 17 15 14 13 13 13 15 16 16 14 12 11 10 9 9 9 10 11 11 12 12 11 10 10 9 8 6 5 2 0 2 3 1 5 6 7 8 9 9 10 10 14 14 15 16 18 19 19 19 19 20 20 20 21
38 38 37 36 34 34 33 33 32 32 30 29 26 26 26 23 22 22 21 22 22 20 19 19 18 17 16 17 18 19 19 18 16 14 13 12 13 14 15 15 14 12 11 10 9 9 9 9 10 10 11 10 10 10 9 8 6 5 5 3 1 2 2 1 4 5 6 8 8 10 10 10 17 17 18 18 19 21 21 20 20 21 21 20 20
38 38 37 36 34 36 35 33 32 31 29 28 27 26 25 22 19 20 20 20 19 18 18 17 16 16 17 17 18 19 19 18 16 15 13 12 12 13 14 15 14 12 11 10 9 9 9 9 9 9 9 9 9 10 9 7 6 5 4 4 4 4 3 3 4 5 6 8 9 10 10 13 15 18 19 20 20 21 22 22 22 22 21 20 20
39 39 38 38 37 36 35 33 32 30 29 26 23 24 23 21 20 20 19 18 18 17 16 15 15 16 17 17 18 19 18 17 16 15 13 13 12 12 13 14 13 11 10 10 9 9 9 9 8 8 8 8 8 9 8 7 6 5 5 5 6 8 7 6 5 5 7 8 8 9 11 14 17 19 20 20 20 20 21 22 22 22 22 22 21
40 40 39 39 37 35 34 32 31 30 29 27 24 22 22 21 20 19 18 18 17 15 15 14 14 15 16 17 18 18 17 17 15 14 13 12 11 10 11 12 13 12 10 9 8 8 9 9 8 7 7 7 7 7 7 6 6 6 5 6 8 10 8 6 6 6 7 8 9 10 12 16 17 18 19 20 19 19 19 20 20 21 22 23 23
39 40 40 39 36 33 33 30 30 30 30 27 23 22 21 21 19 19 18 18 16 14 14 14 14 15 15 17 17 16 17 16 15 14 13 13 11 11 10 11 12 11 8 7 7 8 8 8 8 7 7 7 6 5 6 6 6 6 8 7 9 8 7 7 7 8 9 9 10 10 13 15 16 17 18 18 18 18 17 18 19 19 20 20 20
42 42 40 40 37 33 33 29 27 29 29 27 23 20 19 19 18 17 16 16 15 14 13 13 14 13 14 14 15 16 15 17 17 16 14 13 13 12 10 9 9 9 7 7 8 8 9 9 8 8 7 6 4 4 6 8 nan 7 7 10 9 8 9 9 10 10 10 12 11 14 14 13 15 16 17 18 18 17 16 17 18 16 14 16 19
44 42 40 39 36 35 32 25 23 25 27 25 22 20 20 19 18 17 17 16 15 14 14 14 14 13 12 13 14 16 15 16 17 15 16 16 13 12 11 9 8 8 8 7 8 9 10 10 9 9 7 4 4 6 6 7 8 8 7 8 9 9 10 11 12 13 13 14 13 16 13 13 15 15 16 18 18 18 17 18 22 16 18 20 23
46 42 40 36 34 36 31 21 18 22 23 22 21 21 19 19 19 18 18 17 15 13 14 15 15 13 12 12 13 15 16 16 16 17 17 15 14 13 12 10 9 9 7 7 8 10 7 10 10 7 6 7 7 7 7 8 8 8 9 9 10 10 12 12 13 14 15 16 17 15 13 12 13 14 15 16 17 17 15 18 22 19 19 24 26
43 41 36 34 33 31 22 14 16 19 21 21 20 20 19 18 18 19 19 18 16 14 14 15 15 14 12 11 11 12 14 14 15 16 16 16 15 14 12 11 10 9 8 9 8 8 7 9 9 8 9 8 9 8 7 8 9 9 10 10 11 11 12 14 14 15 17 18 20 17 19 18 17 16 16 17 17 18 20 23 21 21 22 24 27
42 38 36 28 24 20 12 10 14 18 19 20 19 19 19 18 18 19 20 19 17 15 14 14 14 14 13 11 11 12 13 14 15 15 16 16 16 16 15 13 12 10 9 9 9 8 9 9 9 10 9 8 8 8 9 9 10 11 11 12 12 13 13 15 16 17 18 19 22 25 26 27 27 27 27 27 25 22 21 22 22 21 20 23 23
40 36 33 24 18 20 17 12 14 17 19 19 18 17 17 16 17 18 18 18 16 16 15 14 14 14 14 13 13 13 15 16 16 16 17 17 17 16 16 14 13 12 10 10 10 10 10 10 10 10 10 9 9 10 11 12 11 12 13 14 15 15 15 16 17 18 20 22 27 31 31 31 31 31 30 29 28 25 23 24 23 23 23 23 22
37 34 29 24 24 26 25 19 16 17 19 19 18 17 16 16 15 16 15 16 17 16 15 14 13 14 15 15 15 15 15 17 18 18 18 18 19 18 16 16 15 14 13 12 12 12 12 12 12 12 12 11 11 11 12 13 14 14 15 16 17 17 17 18 19 21 23 24 27 31 33 33 33 33 33 32 31 28 27 28 28 27 27 26 25
34 32 29 27 26 27 28 23 18 18 19 19 19 17 17 16 16 14 14 15 16 15 15 14 14 14 16 16 16 16 16 17 19 20 20 21 20 19 18 17 17 16 15 15 13 13 14 13 13 13 13 13 13 13 14 15 15 16 16 18 18 19 19 20 21 24 25 27 29 31 35 36 36 35 36 35 34 33 33 34 34 33 33 32 31
31 30 29 28 27 26 26 24 20 18 19 20 19 18 18 18 16 14 14 16 16 15 14 14 14 16 17 17 17 18 17 17 20 20 21 22 22 21 21 20 20 19 17 17 15 14 14 15 15 14 14 14 15 15 15 17 18 18 18 20 20 21 22 23 24 25 27 28 28 31 35 37 38 37 36 36 37 37 38 38 38 38 37 38 39
30 29 28 28 28 27 25 24 21 18 19 19 19 19 19 18 16 14 14 16 17 16 15 16 16 17 18 19 19 19 19 19 20 21 21 21 21 22 23 23 22 21 20 18 17 16 16 16 15 15 15 15 16 16 16 18 20 21 21 22 23 23 nan nan nan nan nan nan nan 29 33 39 38 38 37 36 36 36 37 37 37 38 38 38 38
29 28 26 27 27 26 25 24 22 20 19 19 19 20 20 19 17 14 14 16 17 17 18 18 17 18 19 20 21 20 21 21 21 20 20 22 21 21 21 23 23 22 21 19 18 18 18 17 17 16 16 16 17 17 18 20 22 22 23 24 nan nan nan nan nan nan nan nan nan nan 29 32 38 38 38 37 37 nan nan nan 39 39 38 37 37
26 26 26 26 26 25 23 23 22 20 17 18 19 21 21 19 16 13 14 16 18 20 21 20 19 18 18 20 21 22 22 22 21 21 22 21 20 19 20 22 22 22 20 20 20 19 18 17 17 16 16 16 17 18 19 21 24 24 nan nan nan nan nan nan nan nan nan nan nan nan nan 29 31 36 39 38 38 nan nan nan nan nan nan nan nan
24 23 24 23 24 23 22 21 20 18 18 19 20 21 21 19 17 16 18 20 21 22 23 21 20 19 19 20 22 23 24 23 22 22 20 19 18 18 19 21 21 22 21 20 20 19 19 18 17 16 16 nan 17 18 20 23 nan nan nan nan nan nan nan nan nan nan nan nan nan nan nan nan 30 30 32 38 38 nan nan nan nan nan nan nan nan
21 21 21 21 22 21 21 20 20 20 20 20 21 22 22 20 18 19 20 21 21 22 22 22 21 21 20 20 22 24 24 25 23 21 19 18 18 18 18 20 22 22 21 20 19 19 18 18 16 16 nan nan nan nan nan 23 nan nan nan nan nan nan nan nan nan nan nan nan nan nan nan nan nan nan nan nan nan nan nan nan nan nan nan nan nan
17 18 18 19 20 20 21 22 23 22 22 22 23 24 23 20 19 20 20 20 21 22 22 22 21 21 21 21 23 25 25 25 23 22 20 19 18 18 18 20 22 22 21 20 18 18 17 18 nan nan nan nan nan nan nan nan nan nan nan nan nan nan nan nan nan nan nan nan nan nan nan nan nan nan nan nan nan nan nan nan nan nan nan nan nan
15 16 16 17 19 20 21 24 25 25 24 25 26 26 23 22 21 21 22 22 22 23 23 22 22 22 21 22 24 25 26 25 24 22 21 20 19 18 18 20 21 21 20 19 18 16 16 17 nan nan nan nan nan nan nan nan nan nan nan nan nan nan nan nan nan nan nan nan nan nan nan nan nan nan nan nan nan nan nan nan nan nan nan nan nan
13 13 13 14 16 18 20 23 26 25 25 27 27 25 24 23 23 23 23 24 25 25 24 23 24 23 23 24 25 26 26 25 24 22 22 21 19 18 18 19 19 19 18 18 17 16 16 nan nan nan nan nan nan nan nan nan nan nan nan nan nan nan nan nan nan nan nan nan nan nan nan nan nan nan nan nan nan nan nan nan nan nan nan nan nan
12 12 12 12 15 19 21 23 25 25 26 27 26 25 24 23 23 23 24 26 26 26 25 26 25 25 25 24 25 25 25 25 24 22 22 21 19 17 17 18 17 16 16 16 17 17 nan nan nan nan nan nan nan nan nan nan nan nan nan nan nan nan nan nan nan nan nan nan nan nan nan nan nan nan nan nan nan nan nan nan nan nan nan nan nan
12 13 12 14 18 21 21 24 26 25 24 22 23 23 22 21 22 23 24 25 26 26 26 26 25 25 25 25 25 25 24 24 23 22 22 20 19 18 17 17 17 16 17 17 17 nan nan nan nan nan nan nan nan nan nan nan nan nan nan nan nan nan nan nan nan nan nan nan nan nan nan nan nan nan nan nan nan nan nan nan nan nan nan nan nan
14 15 16 15 19 21 22 27 29 24 20 21 20 21 21 21 22 24 25 25 27 26 25 23 24 26 27 26 25 24 24 24 22 21 21 20 20 19 18 18 18 18 18 17 17 nan nan nan nan nan nan nan nan nan nan nan nan nan nan nan nan nan nan nan nan nan nan nan nan nan nan nan nan nan nan nan nan nan nan nan nan nan nan nan nan
16 19 16 12 17 21 24 29 25 23 24 22 20 19 19 20 22 23 25 25 26 25 25 24 25 26 27 26 24 24 25 24 22 21 20 19 20 20 20 19 nan nan nan nan nan nan nan nan nan nan nan nan nan nan nan nan nan nan nan nan nan nan nan nan nan nan nan nan nan nan nan nan nan nan nan nan nan nan nan nan nan nan nan nan nan
18 23 15 14 16 17 20 nan 25 23 23 22 21 19 17 18 22 23 25 24 23 24 26 27 26 27 26 25 24 24 24 24 22 20 19 20 21 20 19 nan nan nan nan nan nan nan nan nan nan nan nan nan nan nan nan nan nan nan nan nan nan nan nan nan nan nan nan nan nan nan nan nan nan nan nan nan nan nan nan nan nan nan nan nan nan
20 21 17 17 15 17 22 27 24 21 19 19 19 19 19 21 24 25 25 24 25 26 29 28 27 27 26 25 24 24 25 24 22 21 20 21 21 20 nan nan nan nan nan nan nan nan nan nan nan nan nan nan nan nan nan nan nan nan nan nan nan nan nan nan nan nan nan nan nan nan nan nan nan nan nan nan nan nan nan nan nan nan nan nan nan
19 22 20 18 16 20 27 26 22 19 18 18 20 23 26 27 26 27 27 27 25 25 28 26 23 24 25 25 25 24 23 22 21 22 22 22 nan nan nan nan nan nan nan nan nan nan nan nan nan nan nan nan nan nan nan nan nan nan nan nan nan nan nan nan nan nan nan nan nan nan nan nan nan nan nan nan nan nan nan nan nan nan nan nan nan
17 24 24 18 21 26 26 22 22 23 21 19 22 25 26 28 27 26 25 24 23 22 27 25 20 21 25 24 25 23 21 20 20 22 23 nan nan nan nan nan nan nan nan nan nan nan nan nan nan nan nan nan nan nan nan nan nan nan nan nan nan nan nan nan nan nan nan nan nan nan nan nan nan nan nan nan nan nan nan nan nan nan nan nan nan
22 26 20 22 24 21 22 22 24 23 21 20 22 25 26 25 27 27 25 24 24 23 26 25 23 23 23 24 23 22 21 20 21 nan nan nan nan nan nan nan nan nan nan nan nan nan nan nan nan nan nan nan nan nan nan nan nan nan nan nan nan nan nan nan nan nan nan nan nan nan nan nan nan nan nan nan nan nan nan nan nan nan nan nan nan
25 25 21 22 22 21 21 23 23 21 18 20 22 23 24 24 26 29 27 24 23 26 27 27 25 24 25 23 21 21 21 22 22 nan nan nan nan nan nan nan nan nan nan nan nan nan nan nan nan nan nan nan nan nan nan nan nan nan nan nan nan nan nan nan nan nan nan nan nan nan nan nan nan nan nan nan nan nan nan nan nan nan nan nan nan
26 22 20 21 22 20 20 19 19 18 17 21 22 22 23 26 27 27 26 24 26 26 26 25 nan 23 24 22 22 22 22 22 nan nan nan nan nan nan nan nan nan nan nan nan nan nan nan nan nan nan nan nan nan nan nan nan nan nan nan nan nan nan nan nan nan nan nan nan nan nan nan nan nan nan nan nan nan nan nan nan nan nan nan nan nan
25 19 20 21 20 18 17 17 20 19 19 21 21 21 23 25 24 25 28 25 25 24 22 21 nan 19 19 20 20 20 21 nan nan nan nan nan nan nan nan nan nan nan nan nan nan nan nan nan nan nan nan nan nan nan nan nan nan nan nan nan nan nan nan nan nan nan nan nan nan nan nan nan nan nan nan nan nan nan nan nan nan nan nan nan nan
21 20 20 20 19 18 17 20 21 21 22 23 22 22 22 23 24 24 24 25 24 23 23 23 nan 18 17 18 20 21 nan nan nan nan nan nan nan nan nan nan nan nan nan nan nan nan nan nan nan nan nan nan nan nan nan nan nan nan nan nan nan nan nan nan nan nan nan nan nan nan nan nan nan nan nan nan nan nan nan nan nan nan nan nan nan
Wind_Direction
341 334 332 334 336 336 336 338 340 340 340 341 341 340 340 341 341 341 338 335 331 326 324 326 331 336 336 338 340 343 344 345 345 343 340 338 335 331 324 316 310 306 304 302 303 307 311 314 315 312 312 313 313 311 308 303 297 296 296 299 286 278 282 287 283 280 291 289 288 287 289 288 286 288 nan nan nan nan 291 291 292 300 298 294 nan
340 334 332 335 334 334 334 335 337 338 338 338 338 339 339 339 340 341 338 335 331 326 323 324 328 334 335 336 338 341 343 343 343 340 339 337 335 331 325 316 309 305 302 301 301 306 312 nan 318 315 311 310 312 313 315 312 306 303 298 291 289 287 278 272 275 282 277 285 287 289 291 293 294 295 298 nan nan 293 290 288 nan 308 302 nan nan
334 331 331 334 334 333 332 333 335 335 335 335 335 337 338 338 339 339 338 334 329 326 324 325 327 332 332 334 337 339 340 341 340 339 337 335 334 331 326 317 313 308 303 302 302 304 309 314 319 315 312 nan 310 312 311 309 310 305 296 293 294 287 280 278 284 288 294 285 290 294 296 296 297 304 304 305 307 nan nan nan nan nan nan nan nan
330 330 330 329 333 330 329 330 331 332 332 332 333 335 336 337 337 337 335 331 329 327 325 325 325 329 331 333 336 337 337 337 338 339 338 336 333 330 329 323 317 309 304 300 302 302 305 nan 317 316 313 nan nan 309 308 307 303 301 306 300 288 282 284 285 290 292 296 297 299 318 320 318 317 309 313 314 nan nan nan nan nan nan nan nan nan
326 327 327 330 332 328 328 328 329 330 331 330 331 333 334 334 334 332 332 330 328 326 325 325 324 326 328 329 333 333 333 335 336 335 333 331 331 333 328 325 314 310 306 303 301 299 303 nan nan 312 nan nan 308 306 309 310 309 311 308 305 304 306 303 298 295 301 305 309 307 338 324 321 320 318 319 316 313 nan nan nan nan nan nan nan nan
320 323 326 329 330 327 327 327 329 329 329 328 329 331 331 330 329 329 330 328 327 328 325 324 322 323 324 326 329 329 329 330 332 333 334 336 340 333 327 323 320 313 306 301 301 302 302 307 311 311 310 307 306 307 310 314 318 320 320 320 321 320 322 313 295 304 313 316 335 327 325 323 321 322 323 318 319 317 nan nan nan nan nan nan nan
315 320 326 328 327 326 325 326 328 328 328 328 328 329 327 325 326 328 327 327 328 328 325 322 320 319 322 325 327 328 329 331 333 336 338 338 335 333 326 319 316 309 302 294 295 294 298 304 309 309 306 305 303 305 313 319 321 324 327 331 334 335 343 345 348 327 326 350 331 329 327 326 322 320 319 321 321 nan nan nan nan nan nan nan nan
310 316 324 325 326 321 323 325 326 327 327 326 326 325 323 323 326 327 326 327 328 327 323 319 317 316 321 324 325 328 329 331 334 336 336 333 329 324 321 322 319 312 302 295 291 297 306 306 306 305 304 302 301 304 310 320 329 334 337 343 346 350 3 19 22 17 355 355 337 331 326 322 321 319 322 329 329 329 327 327 nan nan nan nan nan
307 313 321 323 321 319 320 322 324 325 325 324 322 320 320 321 325 325 325 326 326 327 323 318 317 316 321 323 324 328 329 331 332 332 331 330 329 327 327 328 327 321 313 306 300 298 298 302 303 303 302 299 299 302 314 325 331 335 333 339 344 354 13 22 29 24 8 351 347 333 338 325 331 327 326 342 341 334 333 337 340 nan nan nan nan
304 308 316 320 320 317 317 319 322 323 323 320 319 318 319 321 323 323 323 325 325 325 321 317 316 315 319 320 322 326 325 328 329 331 333 333 329 326 324 326 327 321 314 307 302 301 301 299 298 299 295 293 293 298 306 316 326 326 324 325 335 342 1 27 23 19 4 350 345 342 330 340 331 339 329 347 342 339 338 nan nan nan 328 nan nan
305 307 313 318 321 316 314 316 319 321 321 316 316 316 318 320 321 321 322 323 322 322 319 316 315 313 316 318 321 324 325 326 325 326 329 328 327 327 327 325 326 325 317 310 304 302 297 292 290 288 287 287 288 295 304 311 322 323 318 317 325 334 337 7 20 357 357 348 340 338 338 353 346 342 340 349 349 343 347 nan 346 344 341 nan nan
307 308 312 317 317 315 312 315 318 319 317 313 314 315 317 319 319 320 321 320 319 320 318 314 313 312 315 317 320 321 322 322 323 323 328 327 328 328 329 328 327 326 320 312 306 301 296 293 290 290 286 284 286 293 303 313 318 319 316 317 317 310 316 328 13 342 345 343 335 339 340 347 343 339 357 347 349 350 350 350 347 342 340 338 335
309 311 314 319 317 312 311 313 315 315 314 313 313 314 316 318 318 318 318 316 316 318 316 311 309 310 313 315 315 315 315 314 312 315 320 326 327 327 327 329 329 327 322 312 309 307 303 299 292 285 281 283 289 296 306 313 318 321 318 315 323 298 288 330 348 345 340 336 335 342 341 345 345 332 1 352 354 353 355 355 350 346 343 339 nan
309 313 317 318 315 312 308 311 313 313 312 311 311 312 316 318 317 317 315 312 314 317 313 307 307 308 309 311 309 308 308 308 308 311 319 327 326 326 328 328 328 326 320 313 307 307 303 298 293 286 280 278 282 296 306 311 316 321 318 318 313 295 245 338 337 335 338 337 338 340 342 340 344 334 359 3 360 0 1 358 353 348 344 342 339
309 314 317 316 313 312 310 312 314 313 310 308 308 313 316 315 315 314 312 311 314 315 311 304 305 305 304 305 306 307 308 307 306 309 317 324 325 325 330 330 328 325 318 312 308 303 300 295 289 285 278 279 287 298 308 313 317 319 316 290 292 283 258 312 320 326 335 339 338 343 343 347 330 350 5 12 7 7 5 2 355 351 348 344 339
310 314 316 315 314 313 315 318 317 311 309 308 312 316 315 312 314 313 309 310 313 314 309 303 302 301 303 307 309 307 305 305 308 309 311 316 319 322 326 328 327 322 316 311 305 301 298 291 285 277 270 274 285 297 307 312 316 318 320 313 289 235 270 297 307 322 335 341 341 347 349 349 335 359 11 15 11 9 8 3 359 354 351 345 340
311 314 316 315 314 315 317 319 320 314 312 312 313 313 312 311 310 309 307 309 312 312 307 300 299 302 305 308 308 305 303 306 305 305 306 310 313 317 321 325 325 322 315 308 302 296 292 288 282 274 271 275 285 292 294 297 295 299 305 332 304 272 290 42 306 316 335 343 350 352 353 355 349 5 13 17 15 11 8 4 360 356 351 345 340
310 313 315 313 312 315 317 317 318 316 313 313 314 312 312 311 304 305 306 307 308 306 302 297 300 304 304 304 304 303 302 303 302 299 302 305 310 313 315 318 320 318 312 306 301 294 288 284 280 275 271 273 279 286 289 288 291 296 311 332 336 315 322 44 322 323 333 349 354 354 358 349 346 3 13 16 17 12 7 3 359 355 349 342 338
308 311 312 313 312 313 314 313 314 313 313 312 311 311 312 309 308 306 306 304 302 300 296 296 299 301 302 302 302 299 298 299 298 297 299 302 306 313 310 310 312 312 307 304 299 292 286 280 280 275 274 276 281 287 293 291 295 298 306 323 330 328 353 13 327 329 335 345 346 352 355 343 356 5 12 14 14 12 7 1 356 350 346 340 338
307 309 311 312 313 312 310 308 310 312 311 309 311 313 310 309 307 305 304 299 297 294 290 292 295 297 297 297 293 293 292 290 286 294 290 294 296 300 304 307 309 309 304 299 297 291 283 277 273 274 267 268 271 275 282 287 289 295 299 315 323 351 354 346 342 338 339 334 346 346 342 349 360 7 11 13 12 10 4 358 350 346 342 338 336
305 308 311 312 311 314 313 306 307 312 312 310 309 310 308 306 306 304 301 296 292 290 286 288 289 289 292 287 291 290 291 291 290 285 289 283 283 291 293 297 302 303 298 291 293 286 276 272 270 267 260 255 256 275 281 281 283 292 303 313 344 343 331 339 340 338 336 332 338 332 326 351 358 3 9 11 10 7 0 349 343 342 340 335 325
306 307 310 311 308 312 317 308 303 311 313 310 308 306 306 307 305 303 299 293 291 289 283 281 281 284 285 291 290 291 291 291 289 288 284 285 287 279 284 284 285 296 289 279 275 273 265 263 264 263 261 257 266 286 290 299 nan 279 299 335 337 317 323 328 332 330 327 327 328 309 328 343 352 356 359 3 5 1 352 334 328 329 325 315 300
304 305 308 309 309 309 309 302 300 308 311 308 304 302 302 301 303 300 294 291 289 283 279 278 278 279 279 282 287 289 293 292 291 284 280 275 269 267 267 269 268 266 269 263 261 262 259 258 257 261 261 299 301 275 278 274 282 302 311 298 299 309 316 319 324 321 317 310 317 300 322 333 338 341 346 351 356 352 340 319 294 313 324 310 301
301 303 307 307 310 309 303 295 297 308 307 301 296 296 298 298 300 298 294 292 288 282 278 279 278 276 279 280 287 292 291 293 288 283 282 280 278 273 263 265 265 266 250 287 280 263 269 271 261 260 287 269 263 267 269 273 278 285 290 298 302 307 310 309 308 307 305 301 293 284 296 304 315 326 329 336 342 338 321 298 298 314 313 311 310
299 300 302 309 316 310 299 297 308 308 305 296 292 294 295 296 298 294 292 291 290 286 280 280 282 282 280 284 287 288 285 284 283 284 281 278 273 269 267 263 263 270 267 279 277 271 260 258 265 264 254 256 259 264 271 286 292 295 297 299 300 298 299 297 296 296 294 292 281 267 270 277 289 299 308 310 303 299 296 294 300 303 299 302 310
297 300 303 310 326 333 324 313 310 304 300 295 295 298 298 295 294 291 292 290 288 285 279 280 283 285 287 289 288 282 279 277 277 276 276 274 268 265 263 261 262 267 273 277 279 276 270 263 260 260 261 266 272 278 285 291 296 295 295 292 290 288 288 288 287 289 288 286 276 264 270 274 276 279 283 290 296 298 297 297 298 300 302 304 312
297 299 300 298 314 335 339 324 307 301 300 295 298 303 299 297 293 294 292 288 284 281 280 280 281 284 285 287 286 283 280 277 272 268 267 265 264 262 260 261 262 268 271 276 278 276 272 272 274 276 276 275 276 281 285 286 285 287 286 282 281 282 283 284 285 286 285 285 276 265 272 274 278 282 283 286 287 292 292 291 288 292 296 300 302
295 296 297 291 291 305 317 320 305 298 294 295 299 302 302 298 293 296 292 284 279 278 279 280 282 284 286 288 287 285 279 276 271 267 264 263 262 260 261 261 263 263 264 267 272 274 273 276 280 281 279 279 280 281 283 282 280 277 278 277 278 279 280 282 284 284 286 285 280 271 271 272 273 276 279 279 282 286 283 282 285 290 291 292 294
295 296 294 293 290 291 303 314 307 297 293 291 294 294 296 293 295 298 292 285 276 275 278 282 284 284 288 288 287 283 276 272 271 269 269 266 267 266 264 260 257 255 255 263 263 268 269 273 277 279 282 285 285 283 283 280 280 277 276 275 275 277 279 282 282 282 283 285 285 275 270 272 274 274 276 277 278 277 277 276 277 280 283 284 286
296 295 294 291 290 291 299 307 303 297 292 291 288 287 289 291 293 295 288 285 278 276 279 279 282 286 288 286 283 281 276 273 272 273 273 273 272 270 263 255 253 251 251 257 260 262 264 270 275 277 280 282 282 282 284 281 278 275 275 277 278 279 281 280 280 281 284 287 288 284 271 274 272 271 269 269 269 271 273 273 272 274 275 276 279
297 298 295 291 289 292 294 297 297 293 288 287 283 282 285 288 290 287 284 281 280 280 278 278 281 286 288 288 286 283 281 275 274 276 277 277 273 267 261 254 250 247 248 252 256 258 260 261 264 269 272 275 279 280 280 280 277 277 277 278 280 281 nan nan nan nan nan nan nan 289 282 273 273 271 269 268 268 269 269 270 270 269 270 271 274
301 302 296 290 288 290 290 289 290 291 287 283 279 280 283 284 282 279 279 275 277 281 282 282 284 285 286 287 286 283 281 278 276 276 273 274 274 269 261 252 246 245 247 252 256 259 262 262 262 264 266 272 278 279 277 277 277 277 279 279 nan nan nan nan nan nan nan nan nan nan 288 285 274 271 270 268 268 nan nan nan 268 267 268 267 267
299 301 295 291 290 287 284 285 283 285 286 279 277 277 279 280 278 273 269 271 275 281 282 282 281 282 284 285 285 284 283 281 277 272 272 274 276 274 263 248 244 244 247 251 257 261 264 264 264 264 267 273 274 275 275 276 277 276 nan nan nan nan nan nan nan nan nan nan nan nan nan 287 287 280 272 269 268 nan nan nan nan nan nan nan nan
298 293 293 291 282 276 273 273 278 282 275 271 272 274 275 273 268 263 264 269 274 278 278 277 279 280 282 282 282 282 282 281 279 275 273 274 276 274 263 248 239 242 245 249 255 256 259 259 261 266 266 nan 270 271 275 275 nan nan nan nan nan nan nan nan nan nan nan nan nan nan nan nan 288 289 288 275 267 nan nan nan nan nan nan nan nan
292 290 295 291 284 275 270 268 270 267 266 270 272 271 272 270 265 262 265 269 273 273 274 275 278 280 280 278 279 279 280 281 278 276 273 274 276 273 262 247 241 243 247 250 256 258 258 258 258 265 nan nan nan nan nan 279 nan nan nan nan nan nan nan nan nan nan nan nan nan nan nan nan nan nan nan nan nan nan nan nan nan nan nan nan nan
292 289 290 287 281 276 271 265 261 262 262 265 267 268 268 267 264 264 265 269 269 271 272 276 277 278 277 277 277 278 278 278 276 276 277 276 273 269 259 246 239 243 247 251 254 257 258 260 nan nan nan nan nan nan nan nan nan nan nan nan nan nan nan nan nan nan nan nan nan nan nan nan nan nan nan nan nan nan nan nan nan nan nan nan nan
291 292 294 289 284 278 272 268 268 263 264 266 268 268 267 266 264 264 266 268 267 268 272 276 277 277 277 276 276 277 277 271 272 272 273 274 272 265 254 243 238 242 247 250 252 254 259 264 nan nan nan nan nan nan nan nan nan nan nan nan nan nan nan nan nan nan nan nan nan nan nan nan nan nan nan nan nan nan nan nan nan nan nan nan nan
294 295 297 295 290 284 273 268 268 266 266 266 266 265 265 263 262 263 266 266 266 268 273 276 277 278 277 276 276 274 270 271 271 271 270 269 267 263 251 240 240 242 247 249 250 254 258 nan nan nan nan nan nan nan nan nan nan nan nan nan nan nan nan nan nan nan nan nan nan nan nan nan nan nan nan nan nan nan nan nan nan nan nan nan nan
288 294 292 292 282 273 267 271 269 266 265 265 264 265 265 262 261 264 266 266 265 267 274 277 279 279 276 274 271 271 271 271 271 272 273 272 268 260 249 239 239 242 246 251 256 258 nan nan nan nan nan nan nan nan nan nan nan nan nan nan nan nan nan nan nan nan nan nan nan nan nan nan nan nan nan nan nan nan nan nan nan nan nan nan nan
288 282 286 274 269 269 271 270 265 259 261 267 267 267 269 267 266 265 264 263 264 269 275 280 278 274 269 269 269 270 271 271 272 273 272 270 264 255 246 238 238 239 241 246 253 nan nan nan nan nan nan nan nan nan nan nan nan nan nan nan nan nan nan nan nan nan nan nan nan nan nan nan nan nan nan nan nan nan nan nan nan nan nan nan nan
288 283 275 278 276 270 271 269 262 255 255 261 257 267 275 275 272 269 267 265 268 271 274 272 272 269 267 266 268 269 271 272 270 270 270 265 257 251 241 235 236 239 243 249 256 nan nan nan nan nan nan nan nan nan nan nan nan nan nan nan nan nan nan nan nan nan nan nan nan nan nan nan nan nan nan nan nan nan nan nan nan nan nan nan nan
286 280 278 282 270 275 275 273 268 266 269 274 275 282 284 284 277 271 268 268 272 272 271 271 272 267 263 264 267 268 269 268 265 263 262 257 251 245 239 236 nan nan nan nan nan nan nan nan nan nan nan nan nan nan nan nan nan nan nan nan nan nan nan nan nan nan nan nan nan nan nan nan nan nan nan nan nan nan nan nan nan nan nan nan nan
288 280 293 278 271 278 277 nan 272 273 272 279 281 287 283 276 276 273 273 265 254 261 267 270 272 268 263 264 265 265 264 263 260 257 255 250 246 243 239 nan nan nan nan nan nan nan nan nan nan nan nan nan nan nan nan nan nan nan nan nan nan nan nan nan nan nan nan nan nan nan nan nan nan nan nan nan nan nan nan nan nan nan nan nan nan
284 288 284 272 270 279 269 266 259 264 274 280 279 276 272 272 276 276 267 265 268 266 268 270 273 270 262 260 261 261 261 261 256 254 253 250 244 243 nan nan nan nan nan nan nan nan nan nan nan nan nan nan nan nan nan nan nan nan nan nan nan nan nan nan nan nan nan nan nan nan nan nan nan nan nan nan nan nan nan nan nan nan nan nan nan
292 291 284 270 270 271 265 268 273 274 274 278 278 269 266 266 266 262 263 261 265 273 274 271 269 267 263 258 258 257 260 259 252 249 251 248 nan nan nan nan nan nan nan nan nan nan nan nan nan nan nan nan nan nan nan nan nan nan nan nan nan nan nan nan nan nan nan nan nan nan nan nan nan nan nan nan nan nan nan nan nan nan nan nan nan
284 268 262 272 260 253 262 278 284 279 276 278 274 271 277 284 278 273 270 273 277 275 275 276 273 265 261 262 258 254 254 252 248 248 247 nan nan nan nan nan nan nan nan nan nan nan nan nan nan nan nan nan nan nan nan nan nan nan nan nan nan nan nan nan nan nan nan nan nan nan nan nan nan nan nan nan nan nan nan nan nan nan nan nan nan
265 261 264 258 259 265 273 275 269 268 273 275 277 278 283 284 283 276 270 274 274 257 254 261 268 264 263 262 256 250 249 251 250 nan nan nan nan nan nan nan nan nan nan nan nan nan nan nan nan nan nan nan nan nan nan nan nan nan nan nan nan nan nan nan nan nan nan nan nan nan nan nan nan nan nan nan nan nan nan nan nan nan nan nan nan
266 261 263 267 273 270 269 266 265 271 275 278 283 284 284 282 270 265 263 261 260 263 260 262 264 268 267 260 250 246 247 249 253 nan nan nan nan nan nan nan nan nan nan nan nan nan nan nan nan nan nan nan nan nan nan nan nan nan nan nan nan nan nan nan nan nan nan nan nan nan nan nan nan nan nan nan nan nan nan nan nan nan nan nan nan
266 268 275 275 270 269 269 270 274 275 280 287 286 287 282 269 273 278 271 256 256 257 262 267 nan 269 265 252 245 246 249 251 nan nan nan nan nan nan nan nan nan nan nan nan nan nan nan nan nan nan nan nan nan nan nan nan nan nan nan nan nan nan nan nan nan nan nan nan nan nan nan nan nan nan nan nan nan nan nan nan nan nan nan nan nan
269 270 269 266 266 270 276 281 277 276 278 285 288 288 272 271 273 272 271 261 249 252 265 274 nan 268 256 246 247 251 255 nan nan nan nan nan nan nan nan nan nan nan nan nan nan nan nan nan nan nan nan nan nan nan nan nan nan nan nan nan nan nan nan nan nan nan nan nan nan nan nan nan nan nan nan nan nan nan nan nan nan nan nan nan nan
269 274 267 263 267 276 284 279 279 280 286 285 287 281 263 262 267 272 272 270 264 263 273 276 nan 263 251 245 251 254 nan nan nan nan nan nan nan nan nan nan nan nan nan nan nan nan nan nan nan nan nan nan nan nan nan nan nan nan nan nan nan nan nan nan nan nan nan nan nan nan nan nan nan nan nan nan nan nan nan nan nan nan nan nan nan